Regional Weather Roundup
Issued by NWS

Home | Current Version | Previous Version | Graphics & Text | Print | Product List | Glossary On
Versions: 1 2 3 4 5 6 7 8 9 10 11 12 13 14 15 16 17 18 19 20 21 22 23 24 25 26 27 28 29 30 31 32 33 34 35 36 37 38 39 40 41 42 43 44 45 46 47 48 49 50
255
ASUS43 KDMX 220606
RWRIA

WEATHER ROUNDUP FOR IOWA
NATIONAL WEATHER SERVICE DES MOINES IA
1200 AM CST MON JAN 22 2018

NOTE: "FAIR" INDICATES FEW OR NO CLOUDS BELOW 12,000 FEET WITH NO
SIGNIFICANT WEATHER AND/OR OBSTRUCTIONS TO VISIBILITY.

* - THESE STATIONS ARE NOT NWS STATIONS...THUS NOT UNDER NWS
QUALITY CONTROL.  THEY ALSO DO NOT REPORT WEATHER SUCH
AS PRECIPITATION OR FOG.

IAZ001>003-012>014-020>022-031>034-043>046-220700-
   NORTHWEST IOWA

CITY           SKY/WX    TMP DP  RH WIND       PRES   REMARKS
CARROLL *      LGT RAIN  36  36 100 NE12      29.67F WCI  27
CHEROKEE *     CLOUDY    35  31  86 NE15G24   29.72F WCI  25
DENISON *      CLOUDY    36  36 100 NE21G31   29.66F FOG     WCI  24
LE MARS *      CLOUDY    36  30  80 NE21      29.73F WCI  24
ORANGE CITY *  CLOUDY    36  34  93 NE13G20   29.74F WCI  27
SHELDON *      CLOUDY    34  30  86 NE23G31   29.74R WCI  22
SIOUX CITY     RAIN      35  31  85 NE15      29.73F WCI  25
6HR MIN TEMP:  35; 6HR MAX TEMP:  40; 6HR PCP:  0.03;

SPENCER        CLOUDY    36  29  75 NE23G30   29.75S WCI  24
6HR MIN TEMP:  35; 6HR MAX TEMP:  39; 6HR PCP: TRACE;

STORM LAKE *   LGT RAIN  34  32  93 NE28      29.70S WCI  20
$$

IAZ055>058-069>071-079>083-090>094-220700-
   SOUTHWEST IOWA

CITY           SKY/WX    TMP DP  RH WIND       PRES   REMARKS
ATLANTIC *     FOG       37  37 100 NE21G26   29.58F VSB 3/4 WCI  27
AUDUBON *      LGT RAIN  36  34  93 NE16G24   29.62F WCI  26
CLARINDA *     CLOUDY    41  41 100 NE9         N/A
COUNCIL BLFS * CLOUDY    37  37 100 N15       29.58F WCI  28
CRESTON *      CLOUDY    39  39 100 NE17      29.58F WCI  30
HARLAN  *      LGT RAIN  36  36 100 NE18      29.64F WCI  25
LAMONI         LGT RAIN  44  43  96 N10       29.56F FOG
6HR MIN TEMP:  44; 6HR MAX TEMP:  50; 6HR PCP:  0.90;

RED OAK *      FOG       37  37 100 NE18      29.57F VSB 1   WCI  27
SHENANDOAH *   FOG       39  39 100 NE8       29.57S VSB 1/2 WCI  34
$$

IAZ047>049-059>061-072>074-084-220700-
   CENTRAL IOWA

CITY           SKY/WX    TMP DP  RH WIND       PRES   REMARKS
AMES           RAIN      37  37 100 NE14      29.66F FOG     WCI  28
6HR MIN TEMP:  37; 6HR MAX TEMP:  39; 6HR PCP:  0.20;

ANKENY *       LGT RAIN  37  37 100 N14G21    29.64F WCI  29
BOONE *        RAIN      37  37 100 NE15      29.64F WCI  28
CHARITON *     LGT RAIN  41  41 100 NE7       29.57F
DES MOINES     RAIN      39  38  96 NE16      29.61F FOG     WCI  30
6HR MIN TEMP:  39; 6HR MAX TEMP:  41; 6HR PCP:  0.39;

GRINNELL*      RAIN      38  37  99 NE16      29.66F WCI  29
KNOXVILLE *    LGT RAIN  41  41 100 NE10G17   29.58F
MARSHALLTOWN   RAIN      37  37 100 NE20      29.66F FOG     WCI  27
6HR MIN TEMP:  37; 6HR MAX TEMP:  38; 6HR PCP:  0.29;

NEWTON *       CLOUDY    39  37  93 NE14      29.63F FOG     WCI  31
PELLA *        RAIN      40  40  99 CALM      29.64F
PERRY *        HVY RAIN  38  38  99 NE14      29.63F WCI  29
$$

IAZ004>006-015-016-023>025-035-036-220700-
   NORTH CENTRAL IOWA

CITY           SKY/WX    TMP DP  RH WIND       PRES   REMARKS
ALGONA *       CLOUDY    36 N/A N/A NE17G28   29.74R WCI  25
CLARION *      CLOUDY    36  36 100 NE21G28   29.70S FOG     WCI  24
ESTHERVILLE    CLOUDY    33  30  88 N24G33    29.75F WCI  20
6HR MIN TEMP:  32; 6HR MAX TEMP:  36;

FORT DODGE *   CLOUDY    36  35  96 NE13      29.71R FOG     WCI  27
MASON CITY     CLOUDY    36  32  85 NE16      29.75F WCI  26
6HR MIN TEMP:  35; 6HR MAX TEMP:  36; 6HR PCP: TRACE;

FOREST CITY *  CLOUDY    37  32  81 NE12G18   29.74F WCI  30
WEBSTER CITY * LGT RAIN  37  37 100 E16       29.69R WCI  28
IOWA FALLS *   RAIN      37  37  97 NE8G20    29.72S WCI  31
$$

IAZ007>011-017>019-026>030-037>042-050>054-066-220700-
   NORTHEAST IOWA

CITY           SKY/WX    TMP DP  RH WIND       PRES   REMARKS
CEDAR RAPIDS   RAIN      41  40  96 NE12      29.66F FOG
6HR MIN TEMP:  40; 6HR MAX TEMP:  41; 6HR PCP:  0.08;

CHARLES CITY * CLOUDY    37  37 100 NE16      29.74F FOG     WCI  28
CLINTON *      LGT RAIN  40  40 100 E13       29.72F VSB 1/2 WCI  32
DECORAH *      CLOUDY    37  37 100 NE12G20   29.76F FOG     WCI  30
DUBUQUE        FOG       36  35  96 NE10      29.74F VSB 1/4 WCI  28
6HR MIN TEMP:  36; 6HR MAX TEMP:  37; 6HR PCP:  0.03;

MONTICELLO *   LGT RAIN  37  37 100 NE9       29.71F WCI  31
OELWEIN *      FOG       37  37 100 NE16G23   29.72F VSB 1   WCI  28
WATERLOO       LGT RAIN  37  36  96 NE14      29.71F FOG     WCI  28
6HR MIN TEMP:  36; 6HR MAX TEMP:  37; 6HR PCP:  0.03;

$$

IAZ064-065-067-068-078-220700-
   EAST CENTRAL IOWA

CITY           SKY/WX    TMP DP  RH WIND       PRES   REMARKS
DAVENPORT      FOG       44  42  93 E12       29.71F VSB 1/4
6HR MIN TEMP:  41; 6HR MAX TEMP:  44; 6HR PCP: TRACE;

IOWA CITY      FOG       43  40  89 E8        29.67F VSB 1
6HR MIN TEMP:  42; 6HR MAX TEMP:  43; 6HR PCP:  0.06;

MT. PLEASANT * CLOUDY    52  52 100 S15       29.65S
MUSCATINE *    FOG       46  46 100 E5        29.67F VSB 1/2
QUAD CITIES    FOG       47  46  97 E10       29.68F VSB 1/4
6HR MIN TEMP:  43; 6HR MAX TEMP:  47;

$$

IAZ062-063-075>077-085>089-095>099-220700-
   SOUTHEAST IOWA

CITY           SKY/WX    TMP DP  RH WIND       PRES   REMARKS
BURLINGTON     CLOUDY    52  50  93 SE12      29.66F
6HR MIN TEMP:  50; 6HR MAX TEMP:  53; 6HR PCP:  0.03;

FAIRFIELD *    CLOUDY    48  48 100 SE8       29.62F FOG
FORT MADISON * CLOUDY    52  52 100 SE10      29.67F
KEOKUK *       CLOUDY    55  54  94 S23G31    29.66S
OSKALOOSA *    MIX PCPN  42  41  97 NE9       29.62F VSB 3/4
OTTUMWA        LGT RAIN  46  44  93 E8        29.60F FOG
6HR MIN TEMP:  43; 6HR MAX TEMP:  46; 6HR PCP:  0.14;

WASHINGTON *   FOG       46  46 100 E9        29.65F VSB 1/4
$$

ABBREVIATIONS USED IN REMARKS
   TC - TEMPERATURES IN CELSIUS
  WCI - WIND CHILL INDEX
   HX - HEAT INDEX
  VSB - VISIBILITY
$$





USA.gov is the U.S. government's official web portal to all federal, state and local government web resources and services.